• In Belgien
  • Länderverzeichnis
  • Für 7 Tage
  • Wassertemperatur
  • Satellitenkarten
  • Wetterkarte
  • Widgets
  • user-avatar
    Anmelden

    Stündliche Wetter Djelfa

    Heute, 24 Januar, Mittwoch

    Zeit Temperatur Niederschläge Wind Luftdruck Luftfeuchtigkeit
    00:00 +8°C° 0 mm 1 m/S 669 mmHg 56%
    01:00 +8°C° 0 mm 1 m/S 669 mmHg 59%
    02:00 +7°C° 0 mm 1 m/S 668 mmHg 61%
    03:00 +7°C° 0 mm 1 m/S 668 mmHg 64%
    04:00 +6°C° 0 mm 1 m/S 668 mmHg 66%
    05:00 +6°C° 0 mm 1 m/S 668 mmHg 68%
    06:00 +5°C° 0 mm 1 m/S 668 mmHg 70%
    07:00 +7°C° 0 mm 1 m/S 669 mmHg 62%
    08:00 +9°C° 0 mm 1 m/S 670 mmHg 53%
    09:00 +10°C° 0 mm 0 m/S 671 mmHg 45%
    10:00 +12°C° 0 mm 1 m/S 671 mmHg 41%
    11:00 +13°C° 0 mm 1 m/S 671 mmHg 36%
    12:00 +14°C° 0 mm 1 m/S 671 mmHg 31%
    13:00 +15°C° 0 mm 1 m/S 671 mmHg 30%
    14:00 +15°C° 0 mm 1 m/S 671 mmHg 28%
    15:00 +15°C° 0 mm 1 m/S 671 mmHg 27%
    16:00 +14°C° 0 mm 1 m/S 670 mmHg 31%
    17:00 +12°C° 0 mm 2 m/S 670 mmHg 35%
    18:00 +10°C° 0 mm 2 m/S 670 mmHg 40%
    19:00 +9°C° 0 mm 2 m/S 670 mmHg 43%
    20:00 +9°C° 0 mm 2 m/S 670 mmHg 46%
    21:00 +8°C° 0 mm 2 m/S 670 mmHg 50%
    22:00 +8°C° 0 mm 2 m/S 670 mmHg 54%
    23:00 +7°C° 0 mm 2 m/S 670 mmHg 58%

    Morgen, 25 Januar, Donnerstag

    Zeit Temperatur Niederschläge Wind Luftdruck Luftfeuchtigkeit
    00:00 +6°C° 0 mm 2 m/S 670 mmHg 61%
    01:00 +6°C° 0 mm 2 m/S 669 mmHg 65%
    02:00 +6°C° 0 mm 2 m/S 669 mmHg 68%
    03:00 +5°C° 0 mm 2 m/S 669 mmHg 72%
    04:00 +5°C° 0 mm 2 m/S 669 mmHg 73%
    05:00 +5°C° 0 mm 2 m/S 669 mmHg 75%
    06:00 +4°C° 0 mm 2 m/S 668 mmHg 77%
    07:00 +6°C° 0 mm 2 m/S 669 mmHg 72%
    08:00 +7°C° 0 mm 2 m/S 669 mmHg 67%
    09:00 +8°C° 0 mm 3 m/S 670 mmHg 61%
    10:00 +10°C° 0 mm 3 m/S 670 mmHg 54%
    11:00 +11°C° 0 mm 4 m/S 670 mmHg 47%
    12:00 +13°C° 0 mm 4 m/S 670 mmHg 40%
    13:00 +13°C° 0 mm 4 m/S 669 mmHg 38%
    14:00 +14°C° 0 mm 4 m/S 669 mmHg 35%
    15:00 +14°C° 0 mm 4 m/S 668 mmHg 33%
    16:00 +13°C° 0 mm 4 m/S 668 mmHg 37%
    17:00 +12°C° 0 mm 3 m/S 667 mmHg 41%
    18:00 +10°C° 0 mm 3 m/S 667 mmHg 45%
    19:00 +10°C° 0 mm 3 m/S 667 mmHg 48%
    20:00 +9°C° 0 mm 3 m/S 667 mmHg 51%
    21:00 +8°C° 0 mm 3 m/S 667 mmHg 54%
    22:00 +8°C° 0 mm 3 m/S 666 mmHg 55%
    23:00 +7°C° 0 mm 3 m/S 666 mmHg 56%

    übermorgen, 26 Januar, Freitag

    Zeit Temperatur Niederschläge Wind Luftdruck Luftfeuchtigkeit
    00:00 +7°C° 0 mm 3 m/S 666 mmHg 58%
    01:00 +7°C° 0 mm 3 m/S 666 mmHg 58%
    02:00 +5°C° 0 mm 3 m/S 665 mmHg 58%
    03:00 +5°C° 0 mm 3 m/S 665 mmHg 58%
    04:00 +5°C° 0 mm 3 m/S 665 mmHg 59%
    05:00 +4°C° 0 mm 3 m/S 665 mmHg 60%
    06:00 +4°C° 0 mm 3 m/S 664 mmHg 60%
    07:00 +5°C° 0 mm 4 m/S 665 mmHg 61%
    08:00 +6°C° 0 mm 5 m/S 665 mmHg 63%
    09:00 +7°C° 0 mm 6 m/S 665 mmHg 64%
    10:00 +6°C° 0,1 mm 7 m/S 665 mmHg 64%
    11:00 +6°C° 0,1 mm 8 m/S 665 mmHg 64%
    12:00 +7°C° 0,1 mm 9 m/S 665 mmHg 64%
    13:00 +6°C° 0,1 mm 9 m/S 665 mmHg 62%
    14:00 +5°C° 0,1 mm 9 m/S 665 mmHg 59%
    15:00 +5°C° 0,1 mm 10 m/S 664 mmHg 57%
    16:00 +3°C° 0,1 mm 10 m/S 665 mmHg 59%
    17:00 +2°C° 0,1 mm 10 m/S 665 mmHg 61%
    18:00 +1°C° 0,1 mm 10 m/S 665 mmHg 63%
    19:00 0°C° 0 mm 10 m/S 665 mmHg 67%
    20:00 0°C° 0 mm 9 m/S 666 mmHg 71%
    21:00 -1°C° 0 mm 9 m/S 666 mmHg 74%
    22:00 -1°C° 0 mm 9 m/S 666 mmHg 76%
    23:00 -2°C° 0 mm 8 m/S 666 mmHg 77%

    27 Januar, Samstag

    Zeit Temperatur Niederschläge Wind Luftdruck Luftfeuchtigkeit
    00:00 -2°C° 0 mm 8 m/S 665 mmHg 79%
    01:00 -2°C° 0 mm 8 m/S 665 mmHg 80%
    02:00 -3°C° 0 mm 9 m/S 665 mmHg 81%
    03:00 -4°C° 0 mm 9 m/S 664 mmHg 82%
    04:00 -4°C° 0 mm 9 m/S 664 mmHg 82%
    05:00 -4°C° 0 mm 9 m/S 664 mmHg 82%
    06:00 -4°C° 0 mm 9 m/S 664 mmHg 82%
    07:00 -3°C° 0,1 mm 10 m/S 664 mmHg 78%
    08:00 -2°C° 0,1 mm 10 m/S 665 mmHg 74%
    09:00 -2°C° 0,1 mm 10 m/S 665 mmHg 71%
    10:00 0°C° 0 mm 10 m/S 665 mmHg 64%
    11:00 +1°C° 0 mm 10 m/S 665 mmHg 58%
    12:00 +2°C° 0 mm 10 m/S 665 mmHg 52%
    13:00 +2°C° 0 mm 10 m/S 664 mmHg 51%
    14:00 +2°C° 0 mm 9 m/S 664 mmHg 49%
    15:00 +2°C° 0 mm 9 m/S 664 mmHg 48%
    16:00 +1°C° 0 mm 9 m/S 664 mmHg 53%
    17:00 0°C° 0 mm 8 m/S 664 mmHg 59%
    18:00 0°C° 0 mm 7 m/S 664 mmHg 64%
    19:00 -1°C° 0 mm 7 m/S 664 mmHg 69%
    20:00 -1°C° 0 mm 7 m/S 664 mmHg 73%
    21:00 -1°C° 0 mm 6 m/S 665 mmHg 77%
    22:00 -2°C° 0,1 mm 6 m/S 665 mmHg 79%
    23:00 -1°C° 0,1 mm 5 m/S 665 mmHg 81%

    28 Januar, Sonntag

    Zeit Temperatur Niederschläge Wind Luftdruck Luftfeuchtigkeit
    00:00 -1°C° 0,1 mm 4 m/S 664 mmHg 82%
    01:00 -1°C° 0,1 mm 4 m/S 664 mmHg 84%
    02:00 -2°C° 0,1 mm 4 m/S 664 mmHg 85%
    03:00 -1°C° 0,1 mm 3 m/S 664 mmHg 87%
    04:00 -1°C° 0,1 mm 3 m/S 664 mmHg 88%
    05:00 -1°C° 0,1 mm 3 m/S 664 mmHg 89%
    06:00 -1°C° 0,1 mm 3 m/S 665 mmHg 90%
    07:00 -1°C° 0 mm 2 m/S 665 mmHg 86%
    08:00 +1°C° 0 mm 2 m/S 666 mmHg 83%
    09:00 +1°C° 0 mm 2 m/S 666 mmHg 79%
    10:00 +2°C° 0,1 mm 2 m/S 666 mmHg 73%
    11:00 +2°C° 0,1 mm 3 m/S 666 mmHg 66%
    12:00 +3°C° 0,1 mm 3 m/S 666 mmHg 60%
    13:00 +3°C° 0,1 mm 3 m/S 666 mmHg 57%
    14:00 +4°C° 0,1 mm 3 m/S 666 mmHg 54%
    15:00 +4°C° 0,1 mm 3 m/S 665 mmHg 52%
    16:00 +3°C° 0,1 mm 3 m/S 665 mmHg 55%
    17:00 +3°C° 0,1 mm 3 m/S 666 mmHg 59%
    18:00 +2°C° 0,1 mm 3 m/S 666 mmHg 63%
    19:00 +2°C° 0 mm 3 m/S 666 mmHg 66%
    20:00 +1°C° 0 mm 3 m/S 666 mmHg 69%
    21:00 +1°C° 0 mm 3 m/S 667 mmHg 72%
    22:00 0°C° 0 mm 3 m/S 667 mmHg 74%
    23:00 +1°C° 0 mm 2 m/S 667 mmHg 76%

    29 Januar, Montag

    Zeit Temperatur Niederschläge Wind Luftdruck Luftfeuchtigkeit
    00:00 +1°C° 0 mm 2 m/S 666 mmHg 78%
    01:00 +1°C° 0,1 mm 2 m/S 667 mmHg 78%
    02:00 +1°C° 0,1 mm 2 m/S 667 mmHg 78%
    03:00 +1°C° 0,1 mm 2 m/S 667 mmHg 78%
    04:00 +1°C° 0,1 mm 2 m/S 667 mmHg 79%
    05:00 +1°C° 0,1 mm 2 m/S 667 mmHg 80%
    06:00 0°C° 0,1 mm 3 m/S 667 mmHg 82%
    07:00 0°C° 0,1 mm 3 m/S 667 mmHg 79%
    08:00 0°C° 0,1 mm 4 m/S 667 mmHg 75%
    09:00 0°C° 0,1 mm 4 m/S 667 mmHg 72%
    10:00 +1°C° 0,5 mm 5 m/S 667 mmHg 73%
    11:00 +1°C° 0,5 mm 5 m/S 667 mmHg 74%
    12:00 +1°C° 0,5 mm 5 m/S 666 mmHg 75%
    13:00 +1°C° 0,6 mm 5 m/S 666 mmHg 77%
    14:00 +1°C° 0,6 mm 4 m/S 666 mmHg 79%
    15:00 +1°C° 0,6 mm 4 m/S 665 mmHg 81%
    16:00 +2°C° 0,5 mm 3 m/S 665 mmHg 83%
    17:00 +2°C° 0,5 mm 3 m/S 666 mmHg 85%
    18:00 +2°C° 0,5 mm 2 m/S 666 mmHg 87%
    19:00 +2°C° 0 mm 2 m/S 666 mmHg 88%
    20:00 +1°C° 0 mm 2 m/S 666 mmHg 89%
    21:00 +1°C° 0 mm 2 m/S 666 mmHg 90%
    22:00 +1°C° 0 mm 2 m/S 666 mmHg 91%
    23:00 +1°C° 0 mm 2 m/S 666 mmHg 92%
    Mehr zeigen